HAWK-3C

Last updated on Fri Jun 19 2026 20:04:52 GMT+0000 (Coordinated Universal Time)

1 48948U 21059BX 26170.49147182 .00044376 00000+0 37360-3 0 9997 2 48948 97.6775 13.1066 0003519 320.4197 39.6807 15.69730324278210
UTC large
Height (km)
Speed (km/s)
/
Latitude / Longitude
Inclination (degrees)
Orbital Period (minutes)
Azimuth
Elevation
Range (km)
Doppler Factor

Next 0 passes for location: London (51.5072 / 0.1276)

No passes found over London.
HAWK-3C